TimeEDT,TemperatureF,Dew PointF,Humidity,Sea Level PressureIn,VisibilityMPH,Wind Direction,Wind SpeedMPH,Gust SpeedMPH,PrecipitationIn,Events,Conditions,WindDirDegrees,DateUTC
12:52 AM,71.1,62.1,73,29.87,10.0,WSW,6.9,-,N/A,,Clear,250,2013-06-12 04:52:00
1:52 AM,66.9,62.1,84,29.87,10.0,Calm,Calm,-,N/A,,Partly Cloudy,0,2013-06-12 05:52:00
2:52 AM,64.9,62.1,90,29.86,9.0,Calm,Calm,-,N/A,,Partly Cloudy,0,2013-06-12 06:52:00
3:52 AM,64.9,62.1,90,29.85,9.0,Calm,Calm,-,N/A,,Mostly Cloudy,0,2013-06-12 07:52:00
4:52 AM,66.0,62.1,87,29.88,10.0,West,3.5,-,N/A,,Partly Cloudy,260,2013-06-12 08:52:00
5:52 AM,64.0,62.1,93,29.89,7.0,Calm,Calm,-,N/A,,Clear,0,2013-06-12 09:52:00
6:52 AM,64.0,62.1,93,29.88,4.0,Calm,Calm,-,N/A,,Clear,0,2013-06-12 10:52:00
7:52 AM,70.0,64.0,81,29.89,7.0,Calm,Calm,-,N/A,,Clear,0,2013-06-12 11:52:00
8:52 AM,72.0,63.0,73,29.88,10.0,Calm,Calm,-,N/A,,Clear,0,2013-06-12 12:52:00
9:52 AM,75.0,62.1,64,29.91,10.0,Calm,Calm,-,N/A,,Clear,0,2013-06-12 13:52:00
10:52 AM,73.0,63.0,71,29.90,10.0,Calm,Calm,-,0.00,,Mostly Cloudy,0,2013-06-12 14:52:00
11:52 AM,75.0,64.0,69,29.90,10.0,South,4.6,-,0.00,,Scattered Clouds,180,2013-06-12 15:52:00
12:52 PM,78.1,64.0,62,29.87,10.0,South,5.8,-,N/A,,Clear,190,2013-06-12 16:52:00
1:52 PM,79.0,64.0,60,29.81,10.0,South,5.8,-,N/A,,Clear,180,2013-06-12 17:52:00
2:52 PM,81.0,66.0,60,29.84,10.0,WSW,6.9,-,N/A,,Clear,250,2013-06-12 18:52:00
3:52 PM,80.1,68.0,67,29.82,10.0,Calm,Calm,-,N/A,,Partly Cloudy,0,2013-06-12 19:52:00
4:52 PM,79.0,68.0,69,29.76,10.0,East,5.8,-,0.00,,Clear,90,2013-06-12 20:52:00
5:52 PM,82.0,70.0,67,29.79,10.0,NNE,8.1,-,0.00,,Partly Cloudy,20,2013-06-12 21:52:00
6:44 PM,78.8,68.0,69,29.77,9.0,ENE,6.9,-,N/A,Thunderstorm,Clear,60,2013-06-12 22:44:00
6:52 PM,78.1,68.0,71,29.76,9.0,ENE,8.1,-,N/A,Thunderstorm,Clear,60,2013-06-12 22:52:00
6:59 PM,78.8,68.0,69,29.77,9.0,NE,6.9,-,N/A,,Clear,50,2013-06-12 22:59:00
7:52 PM,75.0,66.0,73,29.75,8.0,ENE,10.4,-,N/A,,Clear,70,2013-06-12 23:52:00
8:52 PM,70.0,64.0,81,29.73,6.0,ENE,9.2,-,N/A,,Haze,70,2013-06-13 00:52:00
9:52 PM,70.0,63.0,78,29.70,7.0,East,9.2,-,0.00,Rain,Light Rain,100,2013-06-13 01:52:00
10:52 PM,69.1,63.0,81,29.65,8.0,East,10.4,-,0.00,Rain,Light Rain,100,2013-06-13 02:52:00
11:39 PM,68.0,64.4,88,29.64,6.0,East,6.9,-,0.00,Rain-Thunderstorm,Light Rain,80,2013-06-13 03:39:00
11:52 PM,68.0,64.0,87,29.62,4.0,East,8.1,-,0.02,Rain-Thunderstorm,Rain,90,2013-06-13 03:52:00